Regional Weather Roundup
Issued by NWS Grand Forks, ND

Home | Current Version | Previous Version | Graphics & Text | Print | Product List | Glossary On
Versions: 1 2 3 4 5 6 7 8 9 10 11 12 13 14 15 16 17 18 19 20 21 22 23 24 25 26 27 28 29 30 31 32 33 34 35 36 37 38 39 40 41 42 43 44 45 46 47 48 49 50
000
ASUS43 KFGF 282331
RWRFGF
PRAIRIE TO PINES  WEATHER ROUNDUP
NATIONAL WEATHER SERVICE EASTERN NORTH DAKOTA/GRAND FORKS ND
500 PM CST SUN DEC 28 2014

 **SATELLITE DATA USED TO AUGMENT SKY COVER AT AUTOMATED STATIONS**
 *****  WEATHER ACROSS EASTERN NORTH DAKOTA  *****

CITY           SKY/WX    TMP DP  RH WIND       PRES   REMARKS
GRAND FORKS    FAIR      -3  -9  75 N9        30.40R WCI -19
GRAND FRKS AFB FAIR      -4  -8  82 N8        30.39R WCI -19
GRAND FRKS NWS   N/A     -2 N/A N/A N10         N/A  WCI -19
DEVILS LAKE    FAIR      -4 -11  71 NE5       30.33R WCI -15
FARGO          FAIR       2  -7  66 N13       30.36R WCI -15
WAHPETON ARPT  FAIR       5   0  78 N15G21    30.33R WCI -13
$$

 ***** WEATHER ACROSS CENTRAL AND WESTERN NORTH DAKOTA  *****

CITY           SKY/WX    TMP DP  RH WIND       PRES   REMARKS
BISMARCK       CLOUDY     7   3  84 NE12      30.26R WCI  -8
MINOT          CLOUDY     0  -6  76 N7        30.32R WCI -13
JAMESTOWN      CLOUDY     1  -6  72 N9        30.29R WCI -14
MINOT AFB      FAIR      -3  -6  86 N7        30.33R WCI -16
GARRISON         N/A      5   0  79 NE8       30.26R WCI  -8
WILLISTON      CLOUDY     8   0  69 N13       30.28R WCI  -8
DICKINSON      LGT SNOW  14   8  77 NE15      30.11R WCI  -1
HETTINGER      LGT SNOW  17  13  84 E13       30.10R FOG     WCI   4
$$

 *****  OTHER AIRPORT OBSERVATIONS IN OUR AREA  *****

CITY           SKY/WX    TMP DP  RH WIND       PRES   REMARKS
WALHALLA         N/A     -4  -9  77 NW3       30.42R
GRAFTON AIRPOR NOT AVBL
VALLEY CITY AR FAIR       0  -2  92 NE8       30.32R WCI -15
CANDO          FAIR      -4  -9  77 N6        30.35R WCI -16
CAVALIER APRT  FAIR      -4  -9  77 N5        30.42R WCI -15
GWINNER        PTCLDY     5   0  78 NE13      30.31R WCI -12
SHEYENNE NWR     N/A      3  -5  68 N8        29.95S WCI -10
ROLLA          FAIR      -4  -9  77 NW8       30.32R WCI -19
 ***** THE ABOVE OBSERVATIONS ARE NON NWS ARE NOT QUALITY
       CONTROLLED AND MAY MIS-REPORT RAIN FOR SNOW...
$$

  *****  WEATHER ACROSS NORTHERN MINNESOTA  *****

CITY           SKY/WX    TMP DP  RH WIND       PRES   REMARKS
FLAG ISLAND    FAIR      -2  -9  71 NW12      30.32R WCI -20
WARROAD        FAIR      -2  -9  71 W6        30.33R WCI -14
ROSEAU         FAIR      -2  -9  71 W9        30.35R WCI -18
HALLOCK        FAIR      -6 -11  77 NW9       30.41R WCI -22
THF RVR FALLS  FAIR      -4  -9  77 NW9       30.34S WCI -20
BAUDETTE       FAIR      -2 -11  65 W3        30.29R
WASKISH        FAIR       3  -4  72 CALM      30.29R
CROOKSTON      FAIR      -4  -9  77 N7        30.40R WCI -18
STEPHEN NDAWN    N/A     -6 -11  77 N10         N/A  WCI -23
GREENBUSH NDAW   N/A     -6 -11  77 NW9         N/A  WCI -22
$$
  *****  WEATHER ACROSS CENTRAL AND WEST MINNESOTA  *****

CITY           SKY/WX    TMP DP  RH WIND       PRES   REMARKS
FOSSTON        FAIR      -6  -9  84 CALM      30.32R
BEMIDJI        FAIR      -1  -6  78 NW8       30.27R WCI -15
PARK RAPIDS    FAIR       9  -3  58 N8        30.24R WCI  -3
ELBOW LAKE     FAIR      12   5  74 NW8       30.27R WCI   0
WADENA         FAIR       9   0  66 NE6       30.26R WCI  -1
DETROIT LAKES  FAIR       5   0  78 N7        30.29R WCI  -7
MOORHEAD       FAIR       1  -2  85 N12       30.36R WCI -15
FERGUS FALLS   FAIR       7   0  72 N10       30.33R WCI  -8
MORRIS MN      FAIR      12   7  79 NW9       30.26R WCI   0
STAPLES        FAIR      10  -2  56 N6        30.26R WCI   1
$$
  *****  WEATHER ELSEWHERE ACROSS MINNESOTA  *****

CITY           SKY/WX    TMP DP  RH WIND       PRES   REMARKS
DULUTH         FAIR       7  -5  57 NW5       30.20R WCI  -2
INTRNTL FALLS  FAIR      -2 -10  69 W7        30.27R WCI -15
ELY            FAIR       0  -8  71 W5        30.21R WCI -10
CLOQUET        FAIR       7  -6  56 NW3       30.22S
WHEATON        FAIR       7   1  78 NW10      30.33R WCI  -8
BRAINERD       FAIR      10  -1  61 N6        30.25R WCI   0
HIBBING        FAIR       2  -7  66 NW7       30.22R WCI -11
ALEXANDRIA     FAIR      14   3  61 N5        30.23R WCI   6
SAINT CLOUD    FAIR      18   3  52 NW5       30.24R WCI  11
MINNEAPOLIS    MOCLDY    22  11  62 N7        30.24R WCI  13
$$

  *****  WEATHER ACROSS SOUTH DAKOTA  *****

CITY           SKY/WX    TMP DP  RH WIND       PRES   REMARKS
SIOUX FALLS    CLOUDY    21  17  84 NE13      30.16S WCI   9
BROOKINGS      NOT AVBL
WATERTOWN      MOCLDY    10   5  80 NE9       30.18S WCI  -3
HURON          CLOUDY    18  14  84 E9        30.20R WCI   7
SISSETON       NOT AVBL
ABERDEEN       CLOUDY     9   1  70 NE13      30.26R WCI  -7
MITCHELL       CLOUDY    21  18  88 E8        30.19R WCI  11
PIERRE         CLOUDY    18  15  88 E16       30.12R WCI   3
MOBRIDGE       CLOUDY    12   7  80 E12       30.16R WCI  -2
RAPID CITY     FLURRIES  21  14  74 NE10      29.98R WCI  10
$$

  *****  SOME WEATHER IN NEARBY STATES *****

CITY           SKY/WX    TMP DP  RH WIND       PRES   REMARKS
GLASGOW MT     LGT SNOW  13   4  67 NE7       30.24R WCI   3
GREAT FALLS MT LGT SNOW  12   9  85 N20       30.22R VSB 1   WCI  -6
CHEYENNE WY    PTCLDY    28  10  46 W12       29.82S WCI  18
SCOTTSBLUFF NE CLOUDY    20  15  81 E6        29.90R WCI  12
OMAHA NE       MOCLDY    30  23  75 N9        30.14R WCI  22
DES MOINES IA  MOCLDY    34  21  59 CALM      30.14S
DAVENPORT IA   FAIR      30  18  60 CALM      30.18R
CHICAGO IL     FAIR      30  16  56 NW6       30.17R WCI  24
EAU CLAIRE WI  FAIR      13  10  88 CALM      30.21R
LA CROSSE WI   CLOUDY    25  18  74 N7        30.21S WCI  17
$$

  *****  SOME NATIONAL WEATHER *****

CITY           SKY/WX    TMP DP  RH WIND       PRES   REMARKS
LA GUARDIA NY  CLOUDY    48  37  65 NW14      29.97R
RALEIGH NC     CLOUDY    58  54  86 SW7       30.04S
ATLANTA GA     CLOUDY    61  57  88 SW3       30.06R FOG
NEW ORLEANS LA CLOUDY    59  55  87 NW10      30.06R
OKLAHOMA CITY  FAIR      40  24  53 S7        30.09F
ALBUQUERQUE NM MOCLDY    36  11  35 SE6       30.07F
SALT LAKE CITY LGT SNOW  30  27  88 SE8       30.05S FOG     WCI  22
LOS ANGELES CA MOSUNNY   57  36  45 W9        30.17F
BOISE ID       PTCLDY    34  29  82 CALM      30.07F
SEATTLE WA     CLOUDY    43  38  82 CALM      30.18S
$$

*** WEATHER ACROSS MANITOBA...SASKATCHEWAN AND ONTARIO ***
                ***ONTARIO***

CITY           SKY/WX    TMP DP  RH WIND       PRES   REMARKS
GERALDTON      CLEAR     -6 -11  77 W7        30.06R WCI -20
THUNDER BAY    CLEAR      3  -6  66 W7        30.21R WCI  -9
SIOUX LOOKOUT  CLEAR    -11 -17  77 W5        30.22R WCI -23
TORONTO        PTCLDY    34  23  64 W13       30.05R WCI  25
BIG TROUT LK   CLEAR    -18 -24  76 W9        30.10R WCI -38
PICKLE LAKE    CRYSTALS -13 -20  70 W10G17    30.10R WCI -32
DRYDEN         CLEAR    -11 -15  84 W5        30.23R WCI -23
KENORA         CRYSTALS  -9 -15  77 NW5       30.27R WCI -21
$$
                *** MANITOBA***

CITY           SKY/WX    TMP DP  RH WIND       PRES   REMARKS
BRANDON        PTCLDY    -9 -15  77 W8        30.39R WCI -26
DAUPHIN        CLEAR    -26 -31  75 W8        30.45R WCI -45
ISLAND LAKE    CLEAR    -20 -26  76 W5        30.29R WCI -33
PILOT MOUND      N/A    -11 -15  84 NW5         N/A  WCI -23
THE PAS        PTCLDY   -18 -24  76 NW12      30.51R WCI -40
THOMPSON       CLEAR    -18 -26  69 NW10      30.39R WCI -39
WINNIPEG       CLEAR    -13 -20  70 NW9       30.43  WCI -31
CHURCHILL      CRYSTALS -11 -17  77 NW23      30.22  DRFTSNOWWCI -38
GILLAM         PTCLDY   -17 -22  76 W12G20    30.26  WCI -38
$$
                ***SASKATCHEWAN***

CITY           SKY/WX    TMP DP  RH WIND       PRES   REMARKS
ESTEVAN        MOCLDY    -2  -9  71 NW1       30.34R
KINDERSLEY     PTCLDY    -8 -15  71 N5        30.44  WCI -19
LLOYDMINSTER   PTCLDY   -13 -17  84 NW3       30.48R
PRINCE ALBERT  PTCLDY   -11 -17  77 NW6       30.53R WCI -25
REGINA         PTCLDY    -9 -15  77 NW7       30.40  WCI -24
YORKTON        CLEAR    -15 -20  76 W7        30.42R WCI -31
N. BATTLEFORD  PTCLDY   -13 -18  77 NW6       30.53R WCI -27
LA RONGE       PTCLDY   -22 -27  76 W5        30.57  WCI -36
SASKATOON      PTCLDY   -13 -18  77 N3        30.52
SWIFT CURRENT  PTCLDY    -4  -9  77 NE5       30.33R WCI -15
$$
NOTE: THESE ARE AUTOMATED STATIONS WITH LIMITED QUALITY CONTROL
      "FAIR" INDICATES FEW OR NO CLOUDS BELOW 12,000 FEET WITH NO
      SIGNIFICANT WEATHER AND/OR OBSTRUCTIONS TO VISIBILITY.
      SKY/WX - SKY CONDITION AND SIGNIFICANT WEATHER.
      TMP - AIR TEMPERATURE.    DP   - DEWPOINT TEMPERATURE.
      RH  - RELATIVE HUMIDITY.  PRES - PRESSURE.
      HX  - HEAT INDEX.         WCI  - WIND CHILL INDEX.
$



USA.gov is the U.S. government's official web portal to all federal, state and local government web resources and services.